TimePST,TemperatureF,Dew PointF,Humidity,Sea Level PressureIn,VisibilityMPH,Wind Direction,Wind SpeedMPH,Gust SpeedMPH,PrecipitationIn,Events,Conditions,WindDirDegrees,DateUTC
12:15 AM,37.4,6.8,28,29.88,10.0,NNW,17.3,-,N/A,,Unknown,330,2013-01-11 08:15:00
12:35 AM,37.4,6.8,28,29.89,10.0,NW,19.6,25.3,N/A,,Unknown,320,2013-01-11 08:35:00
12:55 AM,37.4,8.6,30,29.89,10.0,NW,19.6,23.0,N/A,,Unknown,320,2013-01-11 08:55:00
1:15 AM,37.4,6.8,28,29.91,10.0,NW,15.0,24.2,N/A,,Unknown,320,2013-01-11 09:15:00
1:35 AM,37.4,5.0,26,29.91,10.0,NW,18.4,26.5,N/A,,Unknown,320,2013-01-11 09:35:00
1:55 AM,37.4,3.2,24,29.93,10.0,NW,13.8,24.2,N/A,,Unknown,310,2013-01-11 09:55:00
2:15 AM,35.6,5.0,28,29.93,10.0,WNW,11.5,-,N/A,,Unknown,300,2013-01-11 10:15:00
2:35 AM,35.6,5.0,28,29.92,10.0,WNW,12.7,-,N/A,,Unknown,300,2013-01-11 10:35:00
2:55 AM,35.6,5.0,28,29.93,10.0,WNW,13.8,-,N/A,,Unknown,300,2013-01-11 10:55:00
3:15 AM,35.6,5.0,28,29.93,10.0,WNW,12.7,-,N/A,,Unknown,300,2013-01-11 11:15:00
3:35 AM,35.6,3.2,26,29.94,10.0,WNW,12.7,-,N/A,,Unknown,300,2013-01-11 11:35:00
3:55 AM,35.6,3.2,26,29.94,10.0,NW,12.7,-,N/A,,Unknown,310,2013-01-11 11:55:00
4:15 AM,35.6,3.2,26,29.95,10.0,NW,12.7,-,N/A,,Unknown,310,2013-01-11 12:15:00
4:35 AM,33.8,5.0,30,29.96,10.0,NW,6.9,-,N/A,,Unknown,320,2013-01-11 12:35:00
4:55 AM,32.0,5.0,32,29.96,10.0,Calm,Calm,-,N/A,,Unknown,0,2013-01-11 12:55:00
5:15 AM,32.0,5.0,32,29.97,10.0,Calm,Calm,-,N/A,,Unknown,0,2013-01-11 13:15:00
5:35 AM,32.0,5.0,32,29.98,10.0,Calm,Calm,-,N/A,,Unknown,0,2013-01-11 13:35:00
5:55 AM,30.2,6.8,37,29.99,10.0,Calm,Calm,-,N/A,,Unknown,0,2013-01-11 13:55:00
6:15 AM,30.2,6.8,37,30.00,10.0,NW,6.9,-,N/A,,Unknown,310,2013-01-11 14:15:00
6:35 AM,32.0,6.8,35,30.01,10.0,WNW,8.1,-,N/A,,Unknown,300,2013-01-11 14:35:00
6:55 AM,32.0,8.6,38,30.02,10.0,WNW,8.1,-,N/A,,Unknown,290,2013-01-11 14:55:00
7:15 AM,32.0,8.6,38,30.02,10.0,WNW,4.6,-,N/A,,Unknown,290,2013-01-11 15:15:00
7:35 AM,33.8,6.8,32,30.03,10.0,West,9.2,-,N/A,,Unknown,270,2013-01-11 15:35:00
7:55 AM,35.6,8.6,33,30.03,10.0,WNW,10.4,-,N/A,,Unknown,290,2013-01-11 15:55:00
8:15 AM,37.4,8.6,30,30.04,10.0,WNW,8.1,-,N/A,,Unknown,290,2013-01-11 16:15:00
8:35 AM,37.4,8.6,30,30.05,10.0,NNW,4.6,-,N/A,,Unknown,330,2013-01-11 16:35:00
8:55 AM,39.2,8.6,28,30.05,10.0,NW,11.5,-,N/A,,Unknown,310,2013-01-11 16:55:00
9:15 AM,39.2,8.6,28,30.05,10.0,WNW,12.7,-,N/A,,Unknown,290,2013-01-11 17:15:00
9:35 AM,39.2,8.6,28,30.05,10.0,WNW,11.5,-,N/A,,Unknown,290,2013-01-11 17:35:00
9:55 AM,41.0,8.6,26,30.05,10.0,NW,12.7,-,N/A,,Unknown,310,2013-01-11 17:55:00
10:15 AM,41.0,6.8,24,30.05,10.0,WNW,15.0,-,N/A,,Unknown,300,2013-01-11 18:15:00
10:35 AM,42.8,6.8,23,30.05,10.0,WNW,13.8,-,N/A,,Unknown,300,2013-01-11 18:35:00
10:55 AM,44.6,5.0,20,30.04,10.0,NW,13.8,19.6,N/A,,Unknown,310,2013-01-11 18:55:00
11:15 AM,44.6,5.0,20,30.03,10.0,West,12.7,19.6,N/A,,Unknown,280,2013-01-11 19:15:00
11:55 AM,44.6,1.4,17,30.01,10.0,WNW,10.4,23.0,N/A,,Unknown,290,2013-01-11 19:55:00
12:15 PM,44.6,1.4,17,30.00,10.0,WNW,15.0,19.6,N/A,,Unknown,290,2013-01-11 20:15:00
12:35 PM,44.6,-0.4,15,30.00,10.0,NW,11.5,20.7,N/A,,Unknown,320,2013-01-11 20:35:00
12:55 PM,44.6,1.4,17,29.99,10.0,WNW,11.5,-,N/A,,Unknown,300,2013-01-11 20:55:00
1:15 PM,44.6,1.4,17,29.99,10.0,WNW,13.8,20.7,N/A,,Unknown,300,2013-01-11 21:15:00
1:35 PM,44.6,1.4,17,29.99,10.0,NW,13.8,24.2,N/A,,Unknown,320,2013-01-11 21:35:00
1:55 PM,44.6,1.4,17,29.99,10.0,WNW,11.5,-,N/A,,Unknown,300,2013-01-11 21:55:00
2:15 PM,44.6,1.4,17,29.99,10.0,NW,12.7,-,N/A,,Unknown,320,2013-01-11 22:15:00
2:35 PM,42.8,3.2,19,29.99,10.0,NW,10.4,-,N/A,,Unknown,320,2013-01-11 22:35:00
2:55 PM,44.6,3.2,18,29.99,10.0,WNW,11.5,-,N/A,,Unknown,300,2013-01-11 22:55:00
3:15 PM,44.6,5.0,20,29.99,10.0,WNW,12.7,-,N/A,,Unknown,300,2013-01-11 23:15:00
3:35 PM,42.8,5.0,21,29.99,10.0,West,5.8,-,N/A,,Unknown,260,2013-01-11 23:35:00
3:55 PM,42.8,5.0,21,29.99,10.0,Calm,Calm,-,N/A,,Unknown,0,2013-01-11 23:55:00
4:15 PM,41.0,5.0,23,29.99,10.0,West,6.9,-,N/A,,Unknown,280,2013-01-12 00:15:00
4:35 PM,41.0,5.0,23,29.99,10.0,WNW,6.9,-,N/A,,Unknown,300,2013-01-12 00:35:00
4:55 PM,41.0,6.8,24,29.99,10.0,West,5.8,-,N/A,,Unknown,280,2013-01-12 00:55:00
5:15 PM,41.0,6.8,24,29.99,10.0,WNW,4.6,-,N/A,,Unknown,290,2013-01-12 01:15:00
5:35 PM,41.0,6.8,24,29.99,10.0,WNW,9.2,-,N/A,,Unknown,290,2013-01-12 01:35:00
5:55 PM,39.2,12.2,33,30.00,10.0,NW,11.5,-,N/A,,Unknown,320,2013-01-12 01:55:00
6:15 PM,39.2,12.2,33,30.00,10.0,NW,13.8,-,N/A,,Unknown,310,2013-01-12 02:15:00
6:35 PM,39.2,14.0,36,30.00,10.0,NW,16.1,23.0,N/A,,Unknown,320,2013-01-12 02:35:00
6:55 PM,39.2,14.0,36,30.01,10.0,NNW,12.7,-,N/A,,Unknown,330,2013-01-12 02:55:00
7:15 PM,37.4,15.8,41,30.01,10.0,NNW,11.5,-,N/A,,Unknown,330,2013-01-12 03:15:00
7:35 PM,37.4,14.0,38,30.01,10.0,NNW,9.2,-,N/A,,Unknown,340,2013-01-12 03:35:00
7:55 PM,37.4,14.0,38,30.02,10.0,NNW,6.9,-,N/A,,Unknown,340,2013-01-12 03:55:00
8:15 PM,37.4,14.0,38,30.01,10.0,NNW,10.4,-,N/A,,Unknown,330,2013-01-12 04:15:00
8:35 PM,39.2,5.0,24,30.01,10.0,NW,11.5,20.7,N/A,,Unknown,310,2013-01-12 04:35:00
8:55 PM,39.2,8.6,28,30.02,10.0,NW,8.1,-,N/A,,Unknown,320,2013-01-12 04:55:00
9:15 PM,37.4,6.8,28,30.02,10.0,NNW,8.1,-,N/A,,Unknown,330,2013-01-12 05:15:00
9:35 PM,37.4,6.8,28,30.02,10.0,NNW,9.2,-,N/A,,Unknown,330,2013-01-12 05:35:00
9:55 PM,35.6,6.8,30,30.01,10.0,NNW,6.9,-,N/A,,Unknown,330,2013-01-12 05:55:00
10:15 PM,33.8,6.8,32,30.01,10.0,NW,6.9,-,N/A,,Unknown,310,2013-01-12 06:15:00
10:35 PM,32.0,6.8,35,30.01,10.0,NW,8.1,-,N/A,,Unknown,320,2013-01-12 06:35:00
10:55 PM,32.0,6.8,35,30.02,10.0,NW,8.1,-,N/A,,Unknown,310,2013-01-12 06:55:00
11:15 PM,32.0,6.8,35,30.02,10.0,NW,8.1,-,N/A,,Unknown,320,2013-01-12 07:15:00
11:35 PM,35.6,5.0,28,30.01,10.0,NW,12.7,-,N/A,,Unknown,320,2013-01-12 07:35:00